Vores vejrinfo findes også på:

UK Metoffice

European Weather Network

Weather Underground



Select another period ( hide this area )

Enheder Periode Custom range Directly to
Metrisk Engelsk Begge
Daglig Ugentlig Månedlig Årlig
use both date-selectors for a custom range
previous Dag
With this date

WeatherUnderground graphs for this period ( click here )


Daglig Sum for onsdag Nov 20 2019
Klokken Temp. ( °C ) Dew pt. ( °C ) Vind fra ( km/h ) fra Vindstød ( km/h ) Lufttryk ( hPa ) Humid.( % ) Rainrate ( cm )
Høj7,5 6,2 0,0 ( 0/0 ) 0,0 1020,5 99 -
Gennemsnitlig5,6 4,6 0,0 vindstille #160/160 0,0 1019,2 93 -
Lav2,8 1,9 -   0,0 1017,2 85 -
Daglig Tabular details for onsdag Nov 20 2019
Klokken Temp. ( °C ) Dew pt. ( °C ) Vind fra ( km/h ) fra Vindstød ( km/h ) Lufttryk ( hPa ) Humid.( % ) Rainrate ( cm )
00:00 7,4 5,5   vindstille   1017,2 88 -
00:05 7,4 5,5   vindstille   1017,2 88 -
00:10 7,4 5,4   vindstille   1017,2 87 -
00:15 7,4 5,4   vindstille   1017,2 87 -
00:20 7,4 5,4   vindstille   1017,2 87 -
00:25 7,4 5,2   vindstille   1017,2 86 -
00:30 7,4 5,2   vindstille   1017,2 86 -
00:35 7,4 5,2   vindstille   1017,5 86 -
00:40 7,5 5,1   vindstille   1017,5 85 -
00:45 7,5 5,1   vindstille   1017,5 85 -
00:50 7,4 5,0   vindstille   1017,5 85 -
00:55 7,4 5,2   vindstille   1017,8 86 -
01:00 7,4 5,2   vindstille   1017,8 86 -
01:05 7,3 5,1   vindstille   1017,8 86 -
01:10 7,3 5,3   vindstille   1017,8 87 -
01:15 7,2 5,3   vindstille   1017,8 88 -
01:20 7,1 5,2   vindstille   1017,8 88 -
01:25 6,9 5,1   vindstille   1017,8 88 -
01:30 6,9 5,2   vindstille   1017,8 89 -
01:35 6,8 5,1   vindstille   1017,8 89 -
01:40 6,8 5,3   vindstille   1017,8 90 -
01:45 6,7 5,2   vindstille   1017,8 90 -
01:50 6,7 5,2   vindstille   1017,8 90 -
01:55 6,6 5,1   vindstille   1017,8 90 -
02:00 6,6 5,2   vindstille   1017,8 91 -
02:05 6,5 5,1   vindstille   1018,2 91 -
02:10 6,4 5,0   vindstille   1017,8 91 -
02:15 6,4 5,0   vindstille   1018,2 91 -
02:20 6,4 5,2   vindstille   1018,2 92 -
02:25 6,3 5,1   vindstille   1018,2 92 -
02:30 6,3 5,1   vindstille   1018,5 92 -
02:35 6,3 5,1   vindstille   1018,5 92 -
02:40 6,3 5,1   vindstille   1018,5 92 -
02:45 6,3 5,1   vindstille   1018,5 92 -
02:50 6,3 5,1   vindstille   1018,8 92 -
02:55 6,3 5,1   vindstille   1018,8 92 -
03:00 6,2 5,0   vindstille   1018,5 92 -
03:05 6,2 5,0   vindstille   1018,8 92 -
03:10 6,2 5,0   vindstille   1018,8 92 -
03:15 6,2 5,0   vindstille   1018,8 92 -
03:20 6,2 5,0   vindstille   1018,8 92 -
03:25 6,1 4,9   vindstille   1018,8 92 -
03:30 6,1 4,9   vindstille   1018,8 92 -
03:35 6,1 5,1   vindstille   1018,8 93 -
03:40 6,1 5,1   vindstille   1018,8 93 -
03:45 6,1 5,1   vindstille   1019,2 93 -
03:50 6,0 5,0   vindstille   1019,2 93 -
03:55 5,9 4,9   vindstille   1019,2 93 -
04:00 5,9 4,9   vindstille   1019,2 93 -
04:05 5,9 4,9   vindstille   1019,2 93 -
04:10 5,9 4,9   vindstille   1018,8 93 -
04:15 5,8 4,8   vindstille   1019,2 93 -
04:20 5,8 4,8   vindstille   1019,2 93 -
04:25 5,8 4,8   vindstille   1019,2 93 -
04:30 5,8 4,8   vindstille   1019,2 93 -
04:35 5,8 4,9   vindstille   1019,2 94 -
04:40 5,8 4,9   vindstille   1019,2 94 -
04:45 5,8 4,9   vindstille   1019,2 94 -
04:50 5,8 4,9   vindstille   1019,2 94 -
04:55 5,8 4,9   vindstille   1019,2 94 -
05:00 5,8 4,9   vindstille   1019,2 94 -
05:05 5,8 4,9   vindstille   1019,2 94 -
05:10 5,7 4,8   vindstille   1018,8 94 -
05:15 5,7 4,8   vindstille   1018,8 94 -
05:20 5,7 4,8   vindstille   1018,8 94 -
05:25 5,7 4,8   vindstille   1018,8 94 -
05:30 5,6 4,7   vindstille   1018,8 94 -
05:35 5,6 4,7   vindstille   1018,8 94 -
05:40 5,6 4,7   vindstille   1018,8 94 -
05:45 5,5 4,6   vindstille   1018,8 94 -
05:50 5,4 4,5   vindstille   1018,8 94 -
05:55 5,3 4,4   vindstille   1018,5 94 -
06:00 5,2 4,3   vindstille   1018,5 94 -
06:05 5,1 4,2   vindstille   1018,8 94 -
06:10 4,9 4,0   vindstille   1018,5 94 -
06:15 4,7 3,8   vindstille   1018,8 94 -
06:20 4,6 3,7   vindstille   1018,5 94 -
06:25 4,4 4,3   vindstille   1018,8 99 -
06:30 4,3 3,4   vindstille   1018,8 94 -
06:35 4,0 3,1   vindstille   1018,8 94 -
06:40 3,8 2,9   vindstille   1018,8 94 -
06:45 3,7 2,8   vindstille   1018,8 94 -
06:50 3,4 2,5   vindstille   1018,8 94 -
06:55 3,3 2,4   vindstille   1018,8 94 -
07:00 3,4 2,5   vindstille   1019,2 94 -
07:05 3,3 2,4   vindstille   1019,2 94 -
07:10 3,2 2,3   vindstille   1019,2 94 -
07:15 3,1 2,2   vindstille   1019,2 94 -
07:20 2,9 2,0   vindstille   1019,5 94 -
07:25 2,8 1,9   vindstille   1019,5 94 -
07:30 2,8 2,1   vindstille   1019,5 95 -
07:35 2,8 2,1   vindstille   1019,9 95 -
07:40 3,1 2,4   vindstille   1019,9 95 -
07:45 3,3 2,6   vindstille   1019,9 95 -
07:50 3,4 2,7   vindstille   1019,9 95 -
07:55 3,6 2,9   vindstille   1019,9 95 -
08:00 3,6 2,9   vindstille   1019,9 95 -
08:05 3,6 2,9   vindstille   1019,9 95 -
08:10 3,6 2,9   vindstille   1019,9 95 -
08:15 3,6 2,9   vindstille   1020,2 95 -
08:20 3,6 3,0   vindstille   1020,2 96 -
08:25 3,6 3,0   vindstille   1020,2 96 -
08:30 3,8 3,2   vindstille   1020,2 96 -
08:35 3,8 3,2   vindstille   1020,2 96 -
08:40 3,9 3,3   vindstille   1020,2 96 -
08:45 4,0 3,4   vindstille   1020,2 96 -
08:50 4,1 3,5   vindstille   1020,2 96 -
08:55 4,1 3,5   vindstille   1020,2 96 -
09:00 4,2 3,6   vindstille   1020,2 96 -
09:05 4,1 3,5   vindstille   1020,2 96 -
09:10 4,2 3,6   vindstille   1020,2 96 -
09:15 4,3 3,7   vindstille   1020,2 96 -
09:20 4,3 3,7   vindstille   1020,2 96 -
09:25 4,4 3,8   vindstille   1020,2 96 -
09:30 4,4 3,8   vindstille   1020,2 96 -
09:35 4,6 4,0   vindstille   1020,2 96 -
09:40 4,7 4,1   vindstille   1020,2 96 -
09:45 4,8 4,2   vindstille   1020,5 96 -
09:50 4,8 4,2   vindstille   1020,2 96 -
09:55 4,8 4,2   vindstille   1020,5 96 -
10:00 4,8 4,2   vindstille   1020,5 96 -
10:05 4,8 4,2   vindstille   1020,2 96 -
10:10 4,8 4,2   vindstille   1020,5 96 -
10:15 4,9 4,3   vindstille   1020,5 96 -
10:20 5,1 4,5   vindstille   1020,5 96 -
10:25 5,2 4,6   vindstille   1020,2 96 -
10:30 5,3 4,7   vindstille   1020,2 96 -
10:35 5,4 4,8   vindstille   1020,2 96 -
10:40 5,4 4,8   vindstille   1020,2 96 -
10:45 5,4 4,8   vindstille   1020,2 96 -
10:50 5,4 4,8   vindstille   1020,2 96 -
10:55 5,6 5,0   vindstille   1020,2 96 -
11:00 5,7 5,1   vindstille   1020,2 96 -
11:05 5,8 5,2   vindstille   1020,2 96 -
11:10 5,9 5,3   vindstille   1020,2 96 -
11:15 5,9 5,3   vindstille   1020,2 96 -
11:20 6,1 5,7   vindstille   1020,2 97 -
11:25 6,2 5,8   vindstille   1020,2 97 -
11:30 6,2 5,8   vindstille   1020,2 97 -
11:35 6,3 5,7   vindstille   1019,9 96 -
11:40 6,3 5,7   vindstille   1020,2 96 -
11:45 6,4 5,8   vindstille   1020,2 96 -
11:50 6,5 5,9   vindstille   1019,9 96 -
11:55 6,6 6,0   vindstille   1019,9 96 -
12:00 6,6 6,0   vindstille   1019,9 96 -
12:05 6,6 6,0   vindstille   1019,9 96 -
12:10 6,7 6,1   vindstille   1019,9 96 -
12:15 6,8 6,2   vindstille   1019,9 96 -
12:20 6,8 6,2   vindstille   1019,9 96 -
12:25 6,8 6,2   vindstille   1019,9 96 -
12:30 6,8 6,2   vindstille   1019,9 96 -
12:35 6,8 6,1   vindstille   1019,9 95 -
12:40 6,8 6,1   vindstille   1019,5 95 -
12:45 6,8 6,1   vindstille   1019,5 95 -
12:50 6,9 6,2   vindstille   1019,5 95 -
12:55 6,9 6,0   vindstille   1019,5 94 -
13:00 6,9 6,0   vindstille   1019,5 94 -
13:05 7,0 6,1   vindstille   1019,5 94 -
13:10 7,1 6,2   vindstille   1019,5 94 -
13:15 7,2 6,1   vindstille   1019,5 93 -
Daglig Sum for onsdag Nov 20 2019
Klokken Temp. ( °C ) Dew pt. ( °C ) Vind fra ( km/h ) fra Vindstød ( km/h ) Lufttryk ( hPa ) Humid.( % ) Rainrate ( cm )
Høj7,5 6,2 0,0 ( 0/0 ) 0,0 1020,5 99 -
Gennemsnitlig5,6 4,6 0,0 vindstille #160/160 0,0 1019,2 93 -
Lav2,8 1,9 -   0,0 1017,2 85 -
Daglig Tabular details for onsdag Nov 20 2019
Klokken Temp. ( °C ) Dew pt. ( °C ) Vind fra ( km/h ) fra Vindstød ( km/h ) Lufttryk ( hPa ) Humid.( % ) Rainrate ( cm )
00:00 7,4 5,5   vindstille   1017,2 88 -
00:05 7,4 5,5   vindstille   1017,2 88 -
00:10 7,4 5,4   vindstille   1017,2 87 -
00:15 7,4 5,4   vindstille   1017,2 87 -
00:20 7,4 5,4   vindstille   1017,2 87 -
00:25 7,4 5,2   vindstille   1017,2 86 -
00:30 7,4 5,2   vindstille   1017,2 86 -
00:35 7,4 5,2   vindstille   1017,5 86 -
00:40 7,5 5,1   vindstille   1017,5 85 -
00:45 7,5 5,1   vindstille   1017,5 85 -
00:50 7,4 5,0   vindstille   1017,5 85 -
00:55 7,4 5,2   vindstille   1017,8 86 -
01:00 7,4 5,2   vindstille   1017,8 86 -
01:05 7,3 5,1   vindstille   1017,8 86 -
01:10 7,3 5,3   vindstille   1017,8 87 -
01:15 7,2 5,3   vindstille   1017,8 88 -
01:20 7,1 5,2   vindstille   1017,8 88 -
01:25 6,9 5,1   vindstille   1017,8 88 -
01:30 6,9 5,2   vindstille   1017,8 89 -
01:35 6,8 5,1   vindstille   1017,8 89 -
01:40 6,8 5,3   vindstille   1017,8 90 -
01:45 6,7 5,2   vindstille   1017,8 90 -
01:50 6,7 5,2   vindstille   1017,8 90 -
01:55 6,6 5,1   vindstille   1017,8 90 -
02:00 6,6 5,2   vindstille   1017,8 91 -
02:05 6,5 5,1   vindstille   1018,2 91 -
02:10 6,4 5,0   vindstille   1017,8 91 -
02:15 6,4 5,0   vindstille   1018,2 91 -
02:20 6,4 5,2   vindstille   1018,2 92 -
02:25 6,3 5,1   vindstille   1018,2 92 -
02:30 6,3 5,1   vindstille   1018,5 92 -
02:35 6,3 5,1   vindstille   1018,5 92 -
02:40 6,3 5,1   vindstille   1018,5 92 -
02:45 6,3 5,1   vindstille   1018,5 92 -
02:50 6,3 5,1   vindstille   1018,8 92 -
02:55 6,3 5,1   vindstille   1018,8 92 -
03:00 6,2 5,0   vindstille   1018,5 92 -
03:05 6,2 5,0   vindstille   1018,8 92 -
03:10 6,2 5,0   vindstille   1018,8 92 -
03:15 6,2 5,0   vindstille   1018,8 92 -
03:20 6,2 5,0   vindstille   1018,8 92 -
03:25 6,1 4,9   vindstille   1018,8 92 -
03:30 6,1 4,9   vindstille   1018,8 92 -
03:35 6,1 5,1   vindstille   1018,8 93 -
03:40 6,1 5,1   vindstille   1018,8 93 -
03:45 6,1 5,1   vindstille   1019,2 93 -
03:50 6,0 5,0   vindstille   1019,2 93 -
03:55 5,9 4,9   vindstille   1019,2 93 -
04:00 5,9 4,9   vindstille   1019,2 93 -
04:05 5,9 4,9   vindstille   1019,2 93 -
04:10 5,9 4,9   vindstille   1018,8 93 -
04:15 5,8 4,8   vindstille   1019,2 93 -
04:20 5,8 4,8   vindstille   1019,2 93 -
04:25 5,8 4,8   vindstille   1019,2 93 -
04:30 5,8 4,8   vindstille   1019,2 93 -
04:35 5,8 4,9   vindstille   1019,2 94 -
04:40 5,8 4,9   vindstille   1019,2 94 -
04:45 5,8 4,9   vindstille   1019,2 94 -
04:50 5,8 4,9   vindstille   1019,2 94 -
04:55 5,8 4,9   vindstille   1019,2 94 -
05:00 5,8 4,9   vindstille   1019,2 94 -
05:05 5,8 4,9   vindstille   1019,2 94 -
05:10 5,7 4,8   vindstille   1018,8 94 -
05:15 5,7 4,8   vindstille   1018,8 94 -
05:20 5,7 4,8   vindstille   1018,8 94 -
05:25 5,7 4,8   vindstille   1018,8 94 -
05:30 5,6 4,7   vindstille   1018,8 94 -
05:35 5,6 4,7   vindstille   1018,8 94 -
05:40 5,6 4,7   vindstille   1018,8 94 -
05:45 5,5 4,6   vindstille   1018,8 94 -
05:50 5,4 4,5   vindstille   1018,8 94 -
05:55 5,3 4,4   vindstille   1018,5 94 -
06:00 5,2 4,3   vindstille   1018,5 94 -
06:05 5,1 4,2   vindstille   1018,8 94 -
06:10 4,9 4,0   vindstille   1018,5 94 -
06:15 4,7 3,8   vindstille   1018,8 94 -
06:20 4,6 3,7   vindstille   1018,5 94 -
06:25 4,4 4,3   vindstille   1018,8 99 -
06:30 4,3 3,4   vindstille   1018,8 94 -
06:35 4,0 3,1   vindstille   1018,8 94 -
06:40 3,8 2,9   vindstille   1018,8 94 -
06:45 3,7 2,8   vindstille   1018,8 94 -
06:50 3,4 2,5   vindstille   1018,8 94 -
06:55 3,3 2,4   vindstille   1018,8 94 -
07:00 3,4 2,5   vindstille   1019,2 94 -
07:05 3,3 2,4   vindstille   1019,2 94 -
07:10 3,2 2,3   vindstille   1019,2 94 -
07:15 3,1 2,2   vindstille   1019,2 94 -
07:20 2,9 2,0   vindstille   1019,5 94 -
07:25 2,8 1,9   vindstille   1019,5 94 -
07:30 2,8 2,1   vindstille   1019,5 95 -
07:35 2,8 2,1   vindstille   1019,9 95 -
07:40 3,1 2,4   vindstille   1019,9 95 -
07:45 3,3 2,6   vindstille   1019,9 95 -
07:50 3,4 2,7   vindstille   1019,9 95 -
07:55 3,6 2,9   vindstille   1019,9 95 -
08:00 3,6 2,9   vindstille   1019,9 95 -
08:05 3,6 2,9   vindstille   1019,9 95 -
08:10 3,6 2,9   vindstille   1019,9 95 -
08:15 3,6 2,9   vindstille   1020,2 95 -
08:20 3,6 3,0   vindstille   1020,2 96 -
08:25 3,6 3,0   vindstille   1020,2 96 -
08:30 3,8 3,2   vindstille   1020,2 96 -
08:35 3,8 3,2   vindstille   1020,2 96 -
08:40 3,9 3,3   vindstille   1020,2 96 -
08:45 4,0 3,4   vindstille   1020,2 96 -
08:50 4,1 3,5   vindstille   1020,2 96 -
08:55 4,1 3,5   vindstille   1020,2 96 -
09:00 4,2 3,6   vindstille   1020,2 96 -
09:05 4,1 3,5   vindstille   1020,2 96 -
09:10 4,2 3,6   vindstille   1020,2 96 -
09:15 4,3 3,7   vindstille   1020,2 96 -
09:20 4,3 3,7   vindstille   1020,2 96 -
09:25 4,4 3,8   vindstille   1020,2 96 -
09:30 4,4 3,8   vindstille   1020,2 96 -
09:35 4,6 4,0   vindstille   1020,2 96 -
09:40 4,7 4,1   vindstille   1020,2 96 -
09:45 4,8 4,2   vindstille   1020,5 96 -
09:50 4,8 4,2   vindstille   1020,2 96 -
09:55 4,8 4,2   vindstille   1020,5 96 -
10:00 4,8 4,2   vindstille   1020,5 96 -
10:05 4,8 4,2   vindstille   1020,2 96 -
10:10 4,8 4,2   vindstille   1020,5 96 -
10:15 4,9 4,3   vindstille   1020,5 96 -
10:20 5,1 4,5   vindstille   1020,5 96 -
10:25 5,2 4,6   vindstille   1020,2 96 -
10:30 5,3 4,7   vindstille   1020,2 96 -
10:35 5,4 4,8   vindstille   1020,2 96 -
10:40 5,4 4,8   vindstille   1020,2 96 -
10:45 5,4 4,8   vindstille   1020,2 96 -
10:50 5,4 4,8   vindstille   1020,2 96 -
10:55 5,6 5,0   vindstille   1020,2 96 -
11:00 5,7 5,1   vindstille   1020,2 96 -
11:05 5,8 5,2   vindstille   1020,2 96 -
11:10 5,9 5,3   vindstille   1020,2 96 -
11:15 5,9 5,3   vindstille   1020,2 96 -
11:20 6,1 5,7   vindstille   1020,2 97 -
11:25 6,2 5,8   vindstille   1020,2 97 -
11:30 6,2 5,8   vindstille   1020,2 97 -
11:35 6,3 5,7   vindstille   1019,9 96 -
11:40 6,3 5,7   vindstille   1020,2 96 -
11:45 6,4 5,8   vindstille   1020,2 96 -
11:50 6,5 5,9   vindstille   1019,9 96 -
11:55 6,6 6,0   vindstille   1019,9 96 -
12:00 6,6 6,0   vindstille   1019,9 96 -
12:05 6,6 6,0   vindstille   1019,9 96 -
12:10 6,7 6,1   vindstille   1019,9 96 -
12:15 6,8 6,2   vindstille   1019,9 96 -
12:20 6,8 6,2   vindstille   1019,9 96 -
12:25 6,8 6,2   vindstille   1019,9 96 -
12:30 6,8 6,2   vindstille   1019,9 96 -
12:35 6,8 6,1   vindstille   1019,9 95 -
12:40 6,8 6,1   vindstille   1019,5 95 -
12:45 6,8 6,1   vindstille   1019,5 95 -
12:50 6,9 6,2   vindstille   1019,5 95 -
12:55 6,9 6,0   vindstille   1019,5 94 -
13:00 6,9 6,0   vindstille   1019,5 94 -
13:05 7,0 6,1   vindstille   1019,5 94 -
13:10 7,1 6,2   vindstille   1019,5 94 -
13:15 7,2 6,1   vindstille   1019,5 93 -

Download your copy of this data-set  here

Our weather-data as stored at Weather Underground. Original script by Jim McMurry. Adapted for the template by Leuven-Template.eu

Der anvendes følgende:

Vejrstation
Davis VP2

Vejrprogram
Meteohub

Server
RaspberryPI 3 model B

Davis VP2

Meteohub

RaspberryPI 3 model B